Location: Newark
(27.5900°N, 83.4900°E)
Time: 11:18:56
(UTC+00:00)

Hubble Space Telescope - Pass Details

Date: 13 December 2019
Orbit: 536 x 540 km, 28.5° (Epoch: 22 January)

Event Time Altitude Azimuth Distance (km) Brightness Sun altitude
Rises 00:37:06 0° 246° (WSW) 2,673 3.9 -6.9°
Reaches altitude 10° 00:39:23 10° 242° (WSW) 1,783 3.1 -6.5°
Maximum altitude 00:43:26 56° 164° (SSE) 640 1.4 -5.6°
Drops below altitude 10° 00:47:29 10° 86° (E) 1,786 4.6 -4.8°
Sets 00:49:46 0° 82° (E) 2,677 5.4 -4.3°
